Location: Bouchavesnes-Bergen
(49.9859°N, 2.9203°E)
Time: 11:31:45
(UTC+00:00)

Cosmos 1437 Rocket - Pass Details

Date: 09 March 2021
Orbit: 501 x 565 km, 81.2° (Epoch: 12 April)

Event Time Altitude Azimuth Distance (km) Brightness Sun altitude
Rises 04:28:50 0° 177° (S) 2,736 6.3 -17.7°
Reaches altitude 10° 04:31:03 10° 172° (S) 1,838 5.4 -17.4°
Maximum altitude 04:34:59 50° 97° (E) 709 3.7 -16.8°
Drops below altitude 10° 04:38:52 10° 22° (NNE) 1,821 5.9 -16.2°
Sets 04:41:04 0° 17° (NNE) 2,708 6.8 -15.8°
